Flag for Germany Weather past 2 weeks in Neuruppin, Brandenburg, Germany

Now
38 °F

Overcast.


Feels Like: 34 °F
Forecast: 26 / 35 °F
Wind: 5 mph from West

Location: Neuruppin

Current Time: Dec 25, 2014 at 5:24:43 AM

Latest Report: Dec 25, 2014 at 3:00 AM


Visibility: 6 mi

Pressure: 29.95 "Hg

Humidity: 91%

Dew point: 35 °F

Location of NeuruppinLocation

Historic Weather in Neuruppin — Graph

°F

Neuruppin temperature yesterday

Maximum temperature yesterday: 49 °F (at 2:00 AM)
Minimum temperature yesterday: 40 °F (at 11:00 PM)
Average temperature yesterday: 46 °F

Past Weeks' High & Low Weather Summary

 TemperatureHumidityPressure
High53 °F (Dec 18, 11:00 PM)100% (Dec 14, 3:00 AM)30.23 "Hg (Dec 14, 3:00 AM)
Low32 °F (Dec 10, 3:00 AM)75% (Dec 20, 6:00 AM)29.32 "Hg (Dec 12, 6:00 PM)
Average42 °F90%29.81 "Hg
* Reported Dec 10 3:00 AM — Dec 25 3:00 AM, Neuruppin, Weather by CustomWeather, © 2014

Note: Actual official high and low records may vary slightly from our data, if they occured in-between our weather recording intervals... More about our weather records

Advertising

Neuruppin weather history for previous 24 hours

 ConditionsComfort  
Time TempWeatherWind HumidityBarometerVisibility
3:00 AM
Dec 25
38 °FOvercast.5 mph91%29.95 "Hg6 mi
2:00 AM38 °FOvercast.3 mph91%29.93 "Hg6 mi
1:00 AM38 °FClear.3 mph91%29.93 "Hg6 mi
12:00 AM39 °FClear.3 mph91%29.91 "Hg6 mi
11:00 PM
Dec 24
40 °FPassing clouds.5 mph89%29.91 "Hg6 mi
9:00 PM41 °FClear.5 mph86%29.87 "Hg7 mi
8:00 PM43 °FPassing clouds.5 mph85%29.85 "Hg6 mi
7:00 PM44 °FOvercast.5 mph85%29.83 "Hg6 mi
6:00 PM44 °FOvercast.3 mph85%29.81 "Hg6 mi
5:00 PM45 °FOvercast.6 mph82%29.79 "Hg6 mi
3:00 PM47 °FOvercast.7 mph92%29.76 "Hg6 mi
2:00 PM47 °FOvercast.6 mph92%29.75 "Hg6 mi
1:00 PM46 °FLow clouds.7 mph96%29.76 "Hg6 mi
12:00 PM46 °FOvercast.6 mph92%29.77 "Hg4 mi
11:00 AM46 °FOvercast.7 mph88%29.78 "Hg6 mi
9:00 AM48 °FOvercast.5 mph80%29.78 "Hg6 mi
8:00 AM48 °FOvercast.6 mph82%29.79 "Hg6 mi
7:00 AM48 °FOvercast.7 mph85%29.80 "Hg6 mi
6:00 AM48 °FOvercast.6 mph90%29.80 "Hg6 mi
5:00 AM48 °FOvercast.5 mph90%29.82 "Hg6 mi
Weather by CustomWeather, © 2014

See weather overviewHow to use our weather pages